This demonstration page uses our WeatherBlox Daily Observations layout. Learn more.

Left ArrowRight Arrow

40.97296, -117.73568

Hourly Observations for August 23, 2022

Temp ( °F °C ) Dew Point ( °F °C ) Humidity (%) Winds ( mph kmh ) Pressure ( in mb ) Visibility ( mi km ) Precip ( " mm )
12:56 am 00:56 Clear 59 15 24 -4.4 26 26 SSE 8 13 29.91 1013 10 16 0.00 0.00
1:56 am 01:56 Clear 56 13.3 24 -4.4 29 29 S 6 9 29.90 1013 10 16 0.00 0.00
2:56 am 02:56 Clear 52 11.1 23 -5 32 32 SE 3 6 29.91 1013 10 16 0.00 0.00
3:56 am 03:56 Clear 50 10 25 -3.9 37 37 SSE 7 11 29.91 1013 10 16 0.00 0.00
4:56 am 04:56 Clear 47 8.3 23 -5 38 38 Calm 29.91 1013 10 16 0.00 0.00
5:56 am 05:56 Clear 51 10.6 23 -5 33 33 Calm 29.91 1013 10 16 0.00 0.00
6:56 am 06:56 Sunny 52 11.1 26 -3.3 36 36 SE 7 11 29.92 1013 10 16 0.00 0.00
7:56 am 07:56 Sunny 63 17.2 28 -2.2 26 26 Calm 29.93 1014 10 16 0.00 0.00
8:56 am 08:56 Sunny 73 22.8 29 -1.7 19 19 Calm 29.91 1013 10 16 0.00 0.00
9:56 am 09:56 Sunny 81 27.2 30 -1.1 16 16 Calm 29.89 1012 10 16 0.00 0.00
10:56 am 10:56 Sunny 86 30 31 -0.6 14 14 VRB 5 7 29.89 1012 10 16 0.00 0.00
11:56 am 11:56 Sunny 91 32.8 31 -0.6 12 12 VRB 3 6 29.87 1011 10 16 0.00 0.00
12:56 pm 12:56 Sunny 93 33.9 32 0 12 12 VRB 3 6 29.84 1011 10 16 0.00 0.00
1:56 pm 13:56 Sunny 94 34.4 27 -2.8 9 9 NNW 6 9 29.83 1010 10 16 0.00 0.00
2:56 pm 14:56 Sunny 97 36.1 25 -3.9 8 8 WNW 13 20 29.80 1009 10 16 0.00 0.00
3:56 pm 15:56 Sunny 97 36.1 24 -4.4 7 7 W 17 28 29.78 1009 10 16 0.00 0.00
4:56 pm 16:56 Sunny 96 35.6 22 -5.6 7 7 Calm 29.78 1009 10 16 0.00 0.00
5:56 pm 17:56 Sunny 95 35 19 -7.2 6 6 SSW 6 9 29.77 1008 10 16 0.00 0.00
6:56 pm 18:56 Sunny 94 34.4 21 -6.1 7 7 WNW 3 6 29.77 1008 10 16 0.00 0.00
7:56 pm 19:56 Clear 81 27.2 26 -3.3 13 13 NNW 8 13 29.79 1009 10 16 0.00 0.00
8:56 pm 20:56 Clear 73 22.8 24 -4.4 16 16 W 8 13 29.81 1009 10 16 0.00 0.00
9:56 pm 21:56 Clear 68 20 25 -3.9 20 20 Calm 29.80 1009 10 16 0.00 0.00
10:56 pm 22:56 Clear 66 18.9 26 -3.3 22 22 NE 3 6 29.80 1009 10 16 0.00 0.00
11:56 pm 23:56 Clear 59 15 22 -5.6 24 24 S 10 17 29.80 1009 10 16 0.00 0.00

Powered by AerisWeather